Alva, OK

3:00 AM CDT on July 24, 2017 (GMT -0500)
Alva Regional

Weather History for KAVK - February, 2012

Change the Weather History Date:

Saturday, February 4, 2012

  Actual Average Record
Temperature  
Mean Temperature 38 °F -  
Max Temperature 39 °F 50 °F 74 °F (1953)
Min Temperature 37 °F 26 °F -6 °F (1989)
Degree Days  
Heating Degree Days 27    
Moisture  
Dew Point 32 °F    
Average Humidity 80    
Maximum Humidity 93    
Minimum Humidity 75    
Precipitation  
Precipitation 0.00 in - - ()
Sea Level Pressure  
Sea Level Pressure 30.23 in    
Wind  
Wind Speed 20 mph (NNW)    
Max Wind Speed 25 mph    
Max Gust Speed 32 mph    
Visibility 10 miles    
Events      
Averages and records for this station are not official NWS values.
T = Trace of Precipitation, MM = Missing Value Source: NWS Daily Summary

Daily Weather History Graph

Daily Weather History Graph

Search for Another Location

Airport or City:

Trip Planner

Search our weather history database for the weather conditions in past years. The results will help you decide how hot, cold, wet, or windy it might be!

Date:

Astronomy

Feb. 04, 2012 Rise Set
Actual Time 7:34 AM CST 6:03 PM CST
Civil Twilight 7:07 AM CST 6:30 PM CST
Nautical Twilight 6:36 AM CST 7:00 PM CST
Astronomical Twilight 6:06 AM CST 7:31 PM CST
Moon 3:04 PM CST (2/4) 4:58 AM CST (2/4)
Length of Visible Light 11h 22m
Length of Day
10h 28m
Waxing Gibbous, 89% of the Moon is Illuminated
Feb 4
Waxing Gibbous
Feb 7
Full
Feb 14
Last Quarter
Feb 21
New
Feb 29
First Quarter

Hourly Weather History & Observations

Time (CST) Temp. Windchill Dew Point Humidity Pressure Visibility Wind Dir Wind Speed Gust Speed Precip Events Conditions
12:15 AM 37.4 °F 26.9 °F 35.6 °F 93% 30.09 in 10.0 mi NW 20.7 mph 27.6 mph N/A   Overcast
12:35 AM 37.4 °F 25.9 °F 35.6 °F 93% 30.09 in 10.0 mi NW 25.3 mph 31.1 mph N/A   Overcast
12:55 AM 37.4 °F 27.2 °F 35.6 °F 93% 30.11 in 10.0 mi NW 19.6 mph 27.6 mph N/A   Overcast
1:15 AM 37.4 °F 27.2 °F 33.8 °F 87% 30.11 in 10.0 mi NW 19.6 mph 25.3 mph N/A   Overcast
1:35 AM 39.2 °F 29.3 °F 33.8 °F 81% 30.11 in 10.0 mi NW 20.7 mph 32.2 mph N/A   Overcast
1:55 AM 39.2 °F 29.3 °F 33.8 °F 81% 30.12 in 10.0 mi NW 20.7 mph 31.1 mph N/A   Overcast
2:15 AM 39.2 °F 30.5 °F 33.8 °F 81% 30.12 in 10.0 mi NW 16.1 mph 24.2 mph N/A   Overcast
2:35 AM 37.4 °F 27.8 °F 33.8 °F 87% 30.12 in 10.0 mi NW 17.3 mph 24.2 mph N/A   Overcast
2:50 AM 37.4 °F 25.9 °F 33.8 °F 87% 30.11 in 10.0 mi NW 25.3 mph 29.9 mph N/A   Overcast
3:15 AM 37.4 °F 26.6 °F 33.8 °F 87% 30.12 in 10.0 mi NW 21.9 mph 32.2 mph N/A   Overcast
3:35 AM 37.4 °F 26.9 °F 32.0 °F 81% 30.12 in 10.0 mi NNW 20.7 mph 31.1 mph N/A   Overcast
3:55 AM 37.4 °F 26.1 °F 32.0 °F 81% 30.13 in 10.0 mi NW 24.2 mph 33.4 mph N/A   Overcast
4:15 AM 37.4 °F 28.2 °F 32.0 °F 81% 30.14 in 10.0 mi NW 16.1 mph 27.6 mph N/A   Overcast
4:35 AM 37.4 °F 26.9 °F 32.0 °F 81% 30.15 in 10.0 mi NW 20.7 mph 26.5 mph N/A   Overcast
4:55 AM 37.4 °F 27.8 °F 32.0 °F 81% 30.16 in 10.0 mi NW 17.3 mph 23.0 mph N/A   Overcast
5:35 AM 37.4 °F 26.6 °F 32.0 °F 81% 30.18 in 10.0 mi NW 21.9 mph 26.5 mph N/A   Overcast
5:50 AM 37.4 °F 27.2 °F 32.0 °F 81% 30.18 in 10.0 mi NW 19.6 mph 25.3 mph N/A   Overcast
6:15 AM 37.4 °F 28.2 °F 32.0 °F 81% 30.19 in 10.0 mi NW 16.1 mph 25.3 mph N/A   Overcast
6:35 AM 37.4 °F 26.4 °F 32.0 °F 81% 30.18 in 10.0 mi NW 23.0 mph 27.6 mph N/A   Overcast
6:55 AM 37.4 °F 27.8 °F 32.0 °F 81% 30.19 in 10.0 mi NNW 17.3 mph 23.0 mph N/A   Overcast
7:15 AM 37.4 °F 27.5 °F 32.0 °F 81% 30.19 in 10.0 mi NW 18.4 mph 25.3 mph N/A   Overcast
7:35 AM 37.4 °F 28.2 °F 32.0 °F 81% 30.20 in 10.0 mi NW 16.1 mph 26.5 mph N/A   Overcast
7:55 AM 37.4 °F 27.2 °F 32.0 °F 81% 30.21 in 10.0 mi NNW 19.6 mph - N/A   Overcast
8:15 AM 37.4 °F 27.8 °F 32.0 °F 81% 30.22 in 10.0 mi NNW 17.3 mph 24.2 mph N/A   Overcast
8:35 AM 37.4 °F 26.9 °F 32.0 °F 81% 30.23 in 10.0 mi NNW 20.7 mph 25.3 mph N/A   Overcast
8:55 AM 37.4 °F 27.8 °F 32.0 °F 81% 30.24 in 10.0 mi NNW 17.3 mph - N/A   Overcast
9:15 AM 37.4 °F 27.2 °F 32.0 °F 81% 30.25 in 10.0 mi NNW 19.6 mph 26.5 mph N/A   Overcast
9:35 AM 37.4 °F 27.2 °F 32.0 °F 81% 30.27 in 10.0 mi North 19.6 mph 26.5 mph N/A   Overcast
9:55 AM 37.4 °F 26.4 °F 32.0 °F 81% 30.27 in 10.0 mi North 23.0 mph 28.8 mph N/A   Overcast
10:15 AM 37.4 °F 27.8 °F 32.0 °F 81% 30.29 in 10.0 mi North 17.3 mph 26.5 mph N/A   Overcast
10:35 AM 39.2 °F 29.6 °F 32.0 °F 75% 30.29 in 10.0 mi NNW 19.6 mph 28.8 mph N/A   Overcast
10:55 AM 39.2 °F 29.0 °F 32.0 °F 75% 30.29 in 10.0 mi NNW 21.9 mph 27.6 mph N/A   Overcast
11:15 AM 39.2 °F 29.8 °F 32.0 °F 75% 30.30 in 10.0 mi North 18.4 mph 27.6 mph N/A   Overcast
11:35 AM 39.2 °F 29.8 °F 32.0 °F 75% 30.30 in 10.0 mi NNW 18.4 mph 23.0 mph N/A   Overcast
11:55 AM 39.2 °F 29.8 °F 32.0 °F 75% 30.31 in 10.0 mi NNW 18.4 mph 25.3 mph N/A   Overcast
12:15 PM 37.4 °F 27.8 °F 32.0 °F 81% 30.31 in 10.0 mi NNW 17.3 mph 26.5 mph N/A   Overcast
12:35 PM 39.2 °F 28.5 °F 32.0 °F 75% 30.31 in 10.0 mi NNW 24.2 mph 29.9 mph N/A   Overcast
12:55 PM 39.2 °F 29.3 °F 32.0 °F 75% 30.30 in 10.0 mi NNW 20.7 mph 28.8 mph N/A   Overcast
1:15 PM 39.2 °F 29.8 °F 32.0 °F 75% 30.30 in 10.0 mi NNW 18.4 mph 28.8 mph N/A   Overcast
1:35 PM 37.4 °F 27.5 °F 32.0 °F 81% 30.30 in 10.0 mi NNW 18.4 mph 28.8 mph N/A   Overcast
1:55 PM 39.2 °F 29.8 °F 32.0 °F 75% 30.30 in 10.0 mi North 18.4 mph 25.3 mph N/A   Overcast
2:15 PM 39.2 °F 29.8 °F 32.0 °F 75% 30.30 in 10.0 mi NNW 18.4 mph - N/A   Overcast
2:35 PM 39.2 °F 30.8 °F 32.0 °F 75% 30.30 in 10.0 mi NNW 15.0 mph - N/A   Overcast
2:55 PM 39.2 °F 29.8 °F 32.0 °F 75% 30.30 in 10.0 mi NNW 18.4 mph 24.2 mph N/A   Overcast
3:15 PM 39.2 °F 30.2 °F 32.0 °F 75% 30.30 in 10.0 mi North 17.3 mph 24.2 mph N/A   Overcast
3:35 PM 39.2 °F 29.3 °F 32.0 °F 75% 30.31 in 10.0 mi NNW 20.7 mph 26.5 mph N/A   Overcast
3:55 PM 39.2 °F 29.6 °F 32.0 °F 75% 30.32 in 10.0 mi NNW 19.6 mph 23.0 mph N/A   Overcast
4:15 PM 39.2 °F 29.3 °F 32.0 °F 75% 30.32 in 10.0 mi NNW 20.7 mph 27.6 mph N/A   Overcast
4:35 PM 39.2 °F 30.5 °F 32.0 °F 75% 30.33 in 10.0 mi NNW 16.1 mph 24.2 mph N/A   Overcast
4:55 PM 39.2 °F 29.8 °F 32.0 °F 75% 30.33 in 10.0 mi North 18.4 mph 24.2 mph N/A   Overcast
5:55 PM 37.4 °F 28.5 °F 32.0 °F 81% 30.35 in 10.0 mi North 15.0 mph 25.3 mph N/A   Overcast
6:15 PM 37.4 °F 28.2 °F 32.0 °F 81% 30.35 in 10.0 mi North 16.1 mph - N/A   Overcast
6:35 PM 37.4 °F 27.8 °F 32.0 °F 81% 30.35 in 10.0 mi North 17.3 mph 21.9 mph N/A   Overcast
6:55 PM 37.4 °F 26.9 °F 32.0 °F 81% 30.36 in 10.0 mi North 20.7 mph 26.5 mph N/A   Overcast
7:15 PM 37.4 °F 28.9 °F 32.0 °F 81% 30.37 in 10.0 mi North 13.8 mph 20.7 mph N/A   Overcast
7:55 PM 37.4 °F 28.9 °F 32.0 °F 81% 30.38 in 10.0 mi NNW 13.8 mph 21.9 mph N/A   Overcast
8:15 PM 37.4 °F 28.9 °F 32.0 °F 81% 30.39 in 10.0 mi NNW 13.8 mph 20.7 mph N/A   Overcast
8:35 PM 37.4 °F 27.5 °F 32.0 °F 81% 30.39 in 10.0 mi North 18.4 mph 21.9 mph N/A   Overcast
8:55 PM 37.4 °F 29.8 °F 30.2 °F 75% 30.39 in 10.0 mi North 11.5 mph 23.0 mph N/A   Overcast
9:15 PM 35.6 °F 27.5 °F 30.2 °F 81% 30.39 in 10.0 mi North 11.5 mph - N/A   Mostly Cloudy
9:35 PM 35.6 °F 26.6 °F 32.0 °F 87% 30.40 in 10.0 mi North 13.8 mph - N/A   Mostly Cloudy
9:55 PM 35.6 °F 25.2 °F 32.0 °F 87% 30.40 in 10.0 mi North 18.4 mph 21.9 mph N/A   Overcast
10:15 PM 35.6 °F 24.8 °F 30.2 °F 81% 30.40 in 10.0 mi North 19.6 mph 24.2 mph N/A   Overcast
10:35 PM 35.6 °F 26.6 °F 28.4 °F 75% 30.40 in 10.0 mi North 13.8 mph 21.9 mph N/A   Overcast
10:55 PM 35.6 °F 27.1 °F 28.4 °F 75% 30.39 in 10.0 mi North 12.7 mph 18.4 mph N/A   Overcast
11:15 PM 33.8 °F 26.4 °F 28.4 °F 81% 30.40 in 10.0 mi NNW 9.2 mph 16.1 mph N/A   Overcast
11:35 PM 33.8 °F 27.0 °F 28.4 °F 81% 30.40 in 10.0 mi NNW 8.1 mph - N/A   Overcast
11:55 PM 33.8 °F 27.7 °F 30.2 °F 87% 30.40 in 10.0 mi NNW 6.9 mph - N/A   Overcast